THORAD AGENA D DEB, 4737

Orbit data source: Space-Track

THORAD AGENA D DEB, 4737 is space debris in SSO originally from a launch on Wed, 08 Apr 1970 UTC launched from the Air Force Western Test Range (AFWTR). Debris objects in space refer to the collection of defunct objects orbiting the Earth. Examples of debris include non-operational satellites, rocket bodies, and fragments generated from explosions, collisions, or faulty payload assembly.

Loading next visibility...
Identifier
4737, 1970-025CL
Orbit
SSO
Country
Flag of USUS
Related business
Manufacturer
Unknown
Mission
Spacecraft
Bus & Motor
Unknown
Mass
Unknown
Launch date (UTC)
1970-04-08 (56 years ago)
Launch vehicle
Unknown
Launch site
Air Force Western Test Range (AFWTR)
Object type
Payload
Rocket body
Debris
Shape & HBR
Unknown shape, 0.2 m
Radar Cross Section
Small (<0.1 m²)

Expand to show TLE details & history
Last TLE update: 9 hours ago

TLE from 9 hours ago
0 THORAD AGENA D DEB
1 04737U 70025CL  25355.56582369  .00003382  00000-0  12969-2 0  9994
2 04737  99.0460 333.1877 0025122 244.3532 115.5054 14.31071801822186
Epoch: 2025-12-21T13:34Z
TLE epoch observation values (Epoch: 2025-12-21T13:34:47.166Z)
Latitude
-0.00005°
Longitude
39.11474°
Altitude
798.859 km
Speed
7.45 km/s
True Right ascension
22h 12m 45s
True Declination
0° 00' 00"
Sunlit
Object was in daylight at epoch
Visualization orbit readout
Latitude
Unknown
Longitude
Unknown
Altitude
Unknown
Speed
Unknown
Apparent Right ascension
Unknown
Apparent Declination
Unknown
Sunlit
N/A
Visualization observer readout
Local Sidereal Time
21:37:01
Azimuth
Unknown
Elevation
Unknown
Doppler factor
Unknown
Orbital elements
Apogee altitude
803.307 km
Perigee altitude
767.315 km
Semi-major axis
7,163.448 km
Eccentricity
0.00251
Inclination
99.046°
RAAN
333.1877°
Arg. of periapsis
244.3532°
True anomaly
115.76487°
Mean anomaly
115.5054°
Eccentric anomaly
115.63517°
Mean motion
3.57981 °/min
Orbital period
100.56 mins
BSTAR
0.0012969
Loading maneuver chart data...
Computing Atmospheric mass density...
Loading historical data...
Loading historical data...
Loading historical data...
Loading historical data...
Loading historical data...
Loading historical data...
Loading historical data...

Documentation

Showing up to 5 results
|